GW2542 Weather Reports


Display with metric or nautical units.
time (UTC)temp
F
wind
direction
speed
MPH
gust
MPH
rain 1hr
in
rain 24hr
in
rain mn
in
humidity
%
barometer
mb
20260906220521 86 294 3.0 9.0 0.00 0.00 0.00 21 1018.9
20260906220039 86 207 2.0 8.0 0.00 0.00 0.00 22 1019.0
20260906215521 86 178 5.0 8.0 0.00 0.00 0.00 21 1019.1
20260906215021 86 352 3.0 8.0 0.00 0.00 0.00 21 1019.1
20260906214544 86 13 1.0 4.0 0.00 0.00 0.00 20 1019.1
20260906214018 86 316 1.0 5.0 0.00 0.00 0.00 21 1019.2
20260906213519 86 136 2.0 7.0 0.00 0.00 0.00 21 1019.2
20260906213036 85 77 2.0 7.0 0.00 0.00 0.00 22 1019.3
20260906212517 85 115 1.0 4.0 0.00 0.00 0.00 22 1019.4
20260906212019 85 103 2.0 4.0 0.00 0.00 0.00 22 1019.4
20260906211538 84 102 1.0 4.0 0.00 0.00 0.00 24 1019.6
20260906211019 84 78 0.0 9.0 0.00 0.00 0.00 22 1019.7
20260906210521 85 140 4.0 13.0 0.00 0.00 0.00 22 1019.8
20260906205533 87 114 5.0 10.0 0.00 0.00 0.00 20 1020.0
20260906205017 88 105 0.0 9.0 0.00 0.00 0.00 19 1020.1
20260906204016 88 156 4.0 9.0 0.00 0.00 0.00 20 1020.3
20260906203518 87 209 3.0 10.0 0.00 0.00 0.00 21 1020.3
20260906202519 87 0 2.0 15.0 0.00 0.00 0.00 20 1020.4
20260906202021 87 90 7.0 15.0 0.00 0.00 0.00 20 1020.5
20260906201020 87 181 5.0 10.0 0.00 0.00 0.00 20 1020.5
20260906200519 87 103 5.0 10.0 0.00 0.00 0.00 20 1020.5
20260906195521 87 111 1.0 8.0 0.00 0.00 0.00 19 1020.7
20260906195019 86 229 1.0 8.0 0.00 0.00 0.00 21 1020.9
20260906194541 86 196 3.0 8.0 0.00 0.00 0.00 22 1020.9
20260906194019 86 239 3.0 8.0 0.00 0.00 0.00 20 1020.9
20260906193521 87 206 4.0 10.0 0.00 0.00 0.00 23 1020.9
20260906192521 86 260 3.0 7.0 0.00 0.00 0.00 22 1021.1
20260906192019 86 165 1.0 7.0 0.00 0.00 0.00 21 1021.0
20260906191020 86 311 2.0 8.0 0.00 0.00 0.00 20 1021.4
20260906190519 86 352 2.0 8.0 0.00 0.00 0.00 20 1021.5
20260906185520 85 326 3.0 7.0 0.00 0.00 0.00 21 1021.8
20260906185016 84 150 2.0 7.0 0.00 0.00 0.00 21 1021.9
20260906183519 84 346 1.0 7.0 0.00 0.00 0.00 20 1022.1
20260906182520 84 300 1.0 9.0 0.00 0.00 0.00 18 1022.4
20260906182026 84 275 5.0 9.0 0.00 0.00 0.00 21 1022.5
20260906181021 82 352 2.0 8.0 0.00 0.00 0.00 21 1022.6
20260906180521 81 323 3.0 8.0 0.00 0.00 0.00 20 1022.8
20260906175519 80 254 1.0 4.0 0.00 0.00 0.00 24 1023.0
20260906175022 79 100 2.0 7.0 0.00 0.00 0.00 24 1023.1
20260906174537 78 0 0.0 7.0 0.00 0.00 0.00 24 1023.2
20260906174017 78 145 3.0 7.0 0.00 0.00 0.00 28 1023.3
20260906173520 76 52 1.0 5.0 0.00 0.00 0.00 33 1023.4
20260906172019 73 173 2.0 4.0 0.00 0.00 0.00 40 1023.6
20260906171021 72 219 1.0 4.0 0.00 0.00 0.00 42 1023.9
20260906170519 71 164 1.0 4.0 0.00 0.00 0.00 42 1023.9
20260906165525 70 186 1.0 4.0 0.00 0.00 0.00 45 1024.0
20260906165019 69 196 1.0 4.0 0.00 0.00 0.00 46 1024.0
20260906164020 67 179 1.0 4.0 0.00 0.00 0.00 52 1024.2
20260906163517 65 137 1.0 3.0 0.00 0.00 0.00 52 1024.3
20260906163046 64 0 0.0 4.0 0.00 0.00 0.00 51 1024.4
20260906162019 62 150 0.0 3.0 0.00 0.00 0.00 58 1024.6
20260906161022 59 0 0.0 5.0 0.00 0.00 0.00 62 1024.7
20260906160521 58 130 1.0 3.0 0.00 0.00 0.00 66 1024.7
20260906155518 56 137 0.0 2.0 0.00 0.00 0.00 69 1024.8
20260906155018 55 137 1.0 2.0 0.00 0.00 0.00 71 1024.9
20260906153521 53 0 1.0 3.0 0.00 0.00 0.00 74 1024.8
20260906152520 51 0 0.0 2.0 0.00 0.00 0.00 77 1024.8
20260906152023 51 101 0.0 2.0 0.00 0.00 0.00 78 1024.8
20260906151024 49 0 0.0 2.0 0.00 0.00 0.00 83 1025.0
20260906150520 48 0 0.0 3.0 0.00 0.00 0.00 84 1025.0
20260906145518 47 0 0.0 2.0 0.00 0.00 0.00 86 1025.1
20260906145019 47 0 0.0 2.0 0.00 0.00 0.00 87 1025.1
20260906144016 46 0 0.0 1.0 0.00 0.00 0.00 89 1025.0
20260906142523 45 0 0.0 1.0 0.00 0.00 0.00 89 1025.1
20260906142021 44 0 0.0 1.0 0.00 0.00 0.00 89 1025.1
20260906141024 44 0 0.0 1.0 0.00 0.00 0.00 89 1025.2
20260906140521 44 0 0.0 3.0 0.00 0.00 0.00 89 1025.1
20260906135517 43 347 1.0 3.0 0.00 0.00 0.00 88 1025.1
20260906135018 43 0 0.0 0.0 0.00 0.00 0.00 88 1025.0
20260906134535 43 0 0.0 0.0 0.00 0.00 0.00 88 1025.0
20260906134019 43 0 0.0 0.0 0.00 0.00 0.00 88 1024.9
20260906133517 42 0 0.0 0.0 0.00 0.00 0.00 88 1024.9
20260906132520 42 0 0.0 0.0 0.00 0.00 0.00 87 1024.7
20260906132019 42 0 0.0 0.0 0.00 0.00 0.00 87 1024.7
20260906131020 42 0 0.0 0.0 0.00 0.00 0.00 87 1024.5
20260906130519 42 0 0.0 0.0 0.00 0.00 0.00 86 1024.5
20260906125521 42 0 0.0 0.0 0.00 0.00 0.00 86 1024.4
20260906125019 42 0 0.0 3.0 0.00 0.00 0.00 86 1024.5
20260906124018 42 350 0.0 3.0 0.00 0.00 0.00 85 1024.3
20260906123517 42 0 0.0 3.0 0.00 0.00 0.00 85 1024.4
20260906122516 42 279 0.0 2.0 0.00 0.00 0.00 85 1024.5
20260906122023 42 0 0.0 2.0 0.00 0.00 0.00 85 1024.5
20260906120520 42 0 0.0 2.0 0.00 0.00 0.00 84 1024.3
20260906115519 42 352 1.0 3.0 0.00 0.00 0.00 84 1024.3
20260906115017 42 344 0.0 3.0 0.00 0.00 0.00 84 1024.3
20260906114544 43 0 0.0 0.0 0.00 0.00 0.00 84 1024.3
20260906114016 43 0 0.0 0.0 0.00 0.00 0.00 84 1024.3
20260906113546 43 0 0.0 0.0 0.00 0.00 0.00 84 1024.3
20260906112020 43 0 0.0 2.0 0.00 0.00 0.00 83 1024.3
20260906111020 43 0 0.0 3.0 0.00 0.00 0.00 83 1024.3
20260906110522 43 0 0.0 3.0 0.00 0.00 0.00 83 1024.4
20260906105518 43 0 0.0 3.0 0.00 0.00 0.00 83 1024.3
20260906105016 43 0 1.0 4.0 0.00 0.00 0.00 83 1024.2
20260906104020 43 337 2.0 4.0 0.00 0.00 0.00 82 1024.2
20260906103518 44 0 0.0 1.0 0.00 0.00 0.00 82 1024.2
20260906102522 44 0 0.0 2.0 0.00 0.00 0.00 81 1024.2
20260906101023 44 0 0.0 3.0 0.00 0.00 0.00 80 1024.2
20260906100523 44 0 0.0 3.0 0.00 0.00 0.00 80 1024.1
20260906095520 45 0 0.0 1.0 0.00 0.00 0.00 80 1024.1
20260906095018 45 0 0.0 1.0 0.00 0.00 0.00 80 1023.9
20260906094019 45 0 0.0 2.0 0.00 0.00 0.00 80 1023.9
20260906092520 45 0 0.0 2.0 0.00 0.00 0.00 79 1023.9
20260906092017 46 328 0.0 2.0 0.00 0.00 0.00 79 1023.8
20260906091016 46 0 0.0 2.0 0.00 0.00 0.00 78 1023.7
20260906090518 46 331 0.0 2.0 0.00 0.00 0.00 78 1023.6
20260906085518 47 331 2.0 4.0 0.00 0.00 0.00 77 1023.7
20260906085023 47 338 2.0 3.0 0.00 0.00 0.00 77 1023.7
20260906084020 47 0 0.0 2.0 0.00 0.00 0.00 76 1023.6
20260906083521 48 0 0.0 2.0 0.00 0.00 0.00 76 1023.7
20260906082518 48 0 0.0 0.0 0.00 0.00 0.00 75 1023.6
20260906082018 48 0 0.0 1.0 0.00 0.00 0.00 75 1023.6
20260906081017 49 327 0.0 1.0 0.00 0.00 0.00 75 1023.6
20260906080519 49 0 0.0 0.0 0.00 0.00 0.00 75 1023.6
20260906080035 49 0 0.0 1.0 0.00 0.00 0.00 75 1023.6
20260906075518 49 0 0.0 1.0 0.00 0.00 0.00 75 1023.5
20260906075023 49 0 0.0 1.0 0.00 0.00 0.00 76 1023.5
20260906074020 49 0 0.0 1.0 0.00 0.00 0.00 75 1023.5
20260906073519 49 0 0.0 3.0 0.00 0.00 0.00 75 1023.6
20260906072518 49 327 2.0 3.0 0.00 0.00 0.00 75 1023.6
20260906072019 49 342 2.0 3.0 0.00 0.00 0.00 75 1023.6
20260906071020 49 338 1.0 4.0 0.00 0.00 0.00 74 1023.4
20260906070522 49 332 1.0 4.0 0.00 0.00 0.00 74 1023.5
20260906065519 50 345 1.0 3.0 0.00 0.00 0.00 73 1023.5
20260906065020 50 345 2.0 3.0 0.00 0.00 0.00 73 1023.5
20260906064018 50 0 0.0 1.0 0.00 0.00 0.00 72 1023.4
20260906063517 50 0 0.0 1.0 0.00 0.00 0.00 70 1023.4
20260906063036 50 0 0.0 3.0 0.00 0.00 0.00 70 1023.4
20260906062519 50 199 1.0 3.0 0.00 0.00 0.00 70 1023.4
20260906062018 51 0 0.0 2.0 0.00 0.00 0.00 69 1023.4
20260906061021 51 339 0.0 2.0 0.00 0.00 0.00 68 1023.3
20260906060521 51 0 0.0 2.0 0.00 0.00 0.00 67 1023.2
20260906055519 52 0 0.0 2.0 0.00 0.00 0.00 67 1023.2
20260906055022 52 0 0.0 4.0 0.00 0.00 0.00 67 1023.2
20260906054019 52 340 3.0 4.0 0.00 0.00 0.00 65 1023.2
20260906053521 53 321 1.0 3.0 0.00 0.00 0.00 64 1023.2
20260906051021 54 0 0.0 3.0 0.00 0.00 0.00 62 1023.2
20260906050520 54 286 0.0 2.0 0.00 0.00 0.00 62 1023.1
20260906045524 55 331 1.0 3.0 0.00 0.00 0.00 61 1023.0
20260906045022 55 294 1.0 2.0 0.00 0.00 0.00 59 1023.1
20260906044021 56 0 0.0 4.0 0.00 0.00 0.00 58 1023.0
20260906043519 56 314 1.0 4.0 0.00 0.00 0.00 58 1023.0
20260906042520 57 0 0.0 2.0 0.00 0.00 0.00 55 1022.9
20260906042019 57 319 0.0 3.0 0.00 0.00 0.00 55 1022.8
20260906041019 58 319 1.0 3.0 0.00 0.00 0.00 54 1022.8
20260906040518 58 329 1.0 3.0 0.00 0.00 0.00 53 1022.8
20260906035519 59 0 0.0 2.0 0.00 0.00 0.00 53 1022.8
20260906035017 60 277 0.0 2.0 0.00 0.00 0.00 52 1022.7
20260906034019 60 0 1.0 4.0 0.00 0.00 0.00 50 1022.6
20260906033519 61 199 0.0 4.0 0.00 0.00 0.00 49 1022.6
20260906032519 62 230 1.0 4.0 0.00 0.00 0.00 47 1022.6
20260906032022 62 343 2.0 4.0 0.00 0.00 0.00 46 1022.4
20260906031017 64 352 1.0 3.0 0.00 0.00 0.00 45 1022.3
20260906030517 64 0 0.0 2.0 0.00 0.00 0.00 44 1022.3
20260906025521 65 0 1.0 4.0 0.00 0.00 0.00 42 1022.1
20260906024021 67 0 0.0 5.0 0.00 0.00 0.00 39 1021.9
20260906023521 68 5 0.0 5.0 0.00 0.00 0.00 38 1021.8
20260906022519 69 228 1.0 3.0 0.00 0.00 0.00 37 1021.5
20260906022019 69 209 0.0 4.0 0.00 0.00 0.00 37 1021.4
20260906021024 71 143 1.0 3.0 0.00 0.00 0.00 34 1021.3
20260906020517 72 92 0.0 5.0 0.00 0.00 0.00 34 1021.3
20260906015518 73 319 3.0 5.0 0.00 0.00 0.00 32 1021.1
20260906014024 75 349 2.0 3.0 0.00 0.00 0.00 29 1021.0
20260906013520 76 5 1.0 3.0 0.00 0.00 0.00 29 1021.0
20260906012517 78 330 1.0 3.0 0.00 0.00 0.00 28 1021.0
20260906012022 78 0 0.0 6.0 0.00 0.00 0.00 27 1021.0
20260906010519 80 338 3.0 9.0 0.00 0.00 0.00 26 1021.1
20260906005521 81 322 0.0 5.0 0.00 0.00 0.00 25 1021.1
20260906005021 81 302 2.0 5.0 0.00 0.00 0.00 24 1021.1
20260906004024 82 209 0.0 3.0 0.00 0.00 0.00 23 1021.0
20260906003518 82 209 1.0 4.0 0.00 0.00 0.00 23 1021.0
20260906003042 82 238 2.0 4.0 0.00 0.00 0.00 24 1021.0
20260906002517 83 197 1.0 3.0 0.00 0.00 0.00 23 1021.0
20260906002020 83 0 0.0 4.0 0.00 0.00 0.00 22 1021.0
20260906001023 84 209 1.0 7.0 0.00 0.00 0.00 22 1021.0
20260906000519 84 288 0.0 7.0 0.00 0.00 0.00 22 1020.9
20260905235520 85 115 2.0 5.0 0.00 0.00 0.00 21 1020.9
20260905235024 85 0 1.0 5.0 0.00 0.00 0.00 21 1021.0
20260905234018 85 274 1.0 4.0 0.00 0.00 0.00 21 1021.0
20260905233518 85 315 1.0 4.0 0.00 0.00 0.00 22 1021.0
20260905232522 85 282 2.0 5.0 0.00 0.00 0.00 22 1021.0
20260905231021 86 331 2.0 10.0 0.00 0.00 0.00 21 1021.0
20260905230521 86 311 4.0 10.0 0.00 0.00 0.00 22 1021.0
20260905225519 86 273 3.0 10.0 0.00 0.00 0.00 22 1021.0
20260905225019 86 288 7.0 10.0 0.00 0.00 0.00 21 1021.0
20260905224032 85 53 4.0 9.0 0.00 0.00 0.00 22 1021.0
20260905223520 85 341 4.0 8.0 0.00 0.00 0.00 23 1021.1
20260905222518 85 320 3.0 8.0 0.00 0.00 0.00 22 1021.1
20260905222018 85 140 1.0 8.0 0.00 0.00 0.00 21 1021.2
20260905221544 85 295 2.0 8.0 0.00 0.00 0.00 24 1021.3
20260905221021 85 352 1.0 9.0 0.00 0.00 0.00 22 1021.3